Regional Weather Roundup
Issued by NWS Northern Indiana

Home | Current Version | Previous Version | Text Only | Print | Product List | Glossary Off
Versions: 1 2 3 4 5 6 7 8 9 10 11 12 13 14 15 16 17 18 19 20 21 22 23 24 25 26 27 28 29 30 31 32 33 34 35 36 37 38 39 40 41 42 43 44 45 46 47 48 49 50

000
ASUS43 KIWX 200000
RWRIWX

KIWX WEATHER ROUNDUP
NATIONAL WEATHER SERVICE NORTHERN INDIANA
700 PM EST SUN FEB 19 2017

NOTE: "FAIR" INDICATES FEW OR NO CLOUDS BELOW 12,000 FEET WITH NO
SIGNIFICANT WEATHER AND/OR OBSTRUCTIONS TO VISIBILITY.

* THESE STATIONS ARE NOT UNDER NWS QUALITY CONTROL. THEY ALSO MAY NOT
  REPORT WEATHER SUCH AS PRECIPITATION OR FOG.

INZ001>027-200100-
NORTHERN INDIANA

CITY           SKY/WX    TMP DP  RH WIND       PRES   REMARKS
GARY*          PTCLDY    46  32  57 CALM      30.08R
KNOX*          CLEAR     50   9  18 CALM      30.08S
SOUTH BEND     CLEAR     50  24  36 CALM      30.10R
6HR MIN TEMP:  50; 6HR MAX TEMP:  65;

GOSHEN         CLEAR     55  30  38 N3        30.09R
6HR MIN TEMP:  54; 6HR MAX TEMP:  64;

MONTICELLO*    CLEAR     57  43  59 CALM      30.07S
6HR MIN TEMP:  55; 6HR MAX TEMP:  63;

WARSAW*        CLEAR     52  32  46 CALM      30.09S
ANGOLA*        CLEAR     54  30  40 W3        30.09R
FORT WAYNE     PTCLDY    53  33  46 W5        30.10R
6HR MIN TEMP:  52; 6HR MAX TEMP:  64;

PERU/GRISSOM   CLEAR     52  44  75 CALM      30.08S
6HR MIN TEMP:  52; 6HR MAX TEMP:  64;


$$
INZ028>050-200100-
CENTRAL INDIANA

CITY           SKY/WX    TMP DP  RH WIND       PRES   REMARKS
LAFAYETTE      CLEAR     55  43  63 CALM      30.08S
6HR MIN TEMP:  55; 6HR MAX TEMP:  64;

KOKOMO*        CLEAR     53  45  74 CALM      30.10S
6HR MIN TEMP:  53; 6HR MAX TEMP:  64;

MUNCIE*        CLEAR     55  43  63 CALM      30.10R
6HR MIN TEMP:  55; 6HR MAX TEMP:  65;

INDIANAPOLIS   PTCLDY    56  45  66 S6        30.10R
6HR MIN TEMP:  55; 6HR MAX TEMP:  65;


$$
MIZ043>046-050>051-056>058-064>065-071>073-077>080-200100-
SOUTHWEST LOWER MICHIGAN

CITY           SKY/WX    TMP DP  RH WIND       PRES   REMARKS
BATTLE CREEK   CLEAR     54  26  34 NW6       30.10R
6HR MIN TEMP:  54; 6HR MAX TEMP:  64;

BENTON HARBOR  CLOUDY    48  28  46 CALM      30.09S
6HR MIN TEMP:  48; 6HR MAX TEMP:  57;

COLDWATER*     CLEAR     53  27  37 CALM      30.09R
6HR MIN TEMP:  53; 6HR MAX TEMP:  64;

HILLSDALE*     CLEAR     50  28  43 CALM      30.08R
HOLLAND        CLEAR     44  32  62 CALM      30.10R
6HR MIN TEMP:  43; 6HR MAX TEMP:  57;

GRAND RAPIDS   MOCLDY    52  27  38 W7        30.09R
6HR MIN TEMP:  51; 6HR MAX TEMP:  62;

KALAMAZOO      CLEAR     52  23  32 NW5       30.10R
6HR MIN TEMP:  50; 6HR MAX TEMP:  65;

STURGIS*       CLEAR     54  29  37 CALM      30.09R
6HR MIN TEMP:  54; 6HR MAX TEMP:  64;

THREE RIVERS*  FAIR      54  28  37 CALM      30.10R

$$
OHZ001>008-015>018-024>025-200100-
NORTHWEST OHIO

CITY           SKY/WX    TMP DP  RH WIND       PRES   REMARKS
DEFIANCE       CLEAR     53  33  46 CALM      30.09R
6HR MIN TEMP:  51; 6HR MAX TEMP:  64;

FINDLAY        CLEAR     53  35  50 SW5       30.08R
6HR MIN TEMP:  53; 6HR MAX TEMP:  65;

TOLEDO EXPRESS CLEAR     54  31  41 W5        30.07R
6HR MIN TEMP:  54; 6HR MAX TEMP:  65;

TOLEDO METCALF CLEAR     55  32  41 CALM      30.08R
6HR MIN TEMP:  55; 6HR MAX TEMP:  66;

LIMA           CLEAR     56  34  43 W7        30.09R
6HR MIN TEMP:  55; 6HR MAX TEMP:  63;


$$
AND FOR LAKE MICHIGAN COASTAL AND OPEN LAKE BUOY OBSERVATIONS

STATION/POSITION TEMP    WIND        PRES    VSBY  WAVE
                 AIR SEA DIR/SP/G                  HT/PER
                 (F)     (DEG/KT/KT) (MB)    (MI)  (FT/S)
CALUMET HARBOR    43      90/  5/  7 1017.9R
MICHIGAN CITY     53      50/  5/  5   N/A
BURNS HARBOR      39      80/  5/  8 1019.0S

$$
&&




USA.gov is the U.S. government's official web portal to all federal, state and local government web resources and services.